Scottsboro, AL

12:53 PM CDT on May 20, 2018 (GMT -0500)
Scottsboro

Weather History for K4A6 - November, 2013

Change the Weather History Date:

Friday, November 29, 2013

  Actual Average (KHSV) Record (KHSV)
Temperature  
Mean Temperature 37 °F -  
Max Temperature 53 °F 54 °F 76 °F (1970)
Min Temperature 21 °F 35 °F 13 °F (1955)
Degree Days  
Heating Degree Days 28    
Moisture  
Dew Point 23 °F    
Average Humidity 68    
Maximum Humidity 93    
Minimum Humidity 28    
Precipitation  
Precipitation 0.00 in - - ()
Sea Level Pressure  
Sea Level Pressure 30.51 in    
Wind  
Wind Speed 1 mph (ENE)    
Max Wind Speed 7 mph    
Max Gust Speed -    
Visibility 10 miles    
Events      
Averages and records for this station are not official NWS values.
T = Trace of Precipitation, MM = Missing Value Source: NWS Daily Summary

Daily Weather History Graph

Daily Weather History Graph

Search for Another Location

Airport or City:

Astronomy

Nov. 29, 2013 Rise Set
Actual Time 6:31 AM CST 4:33 PM CST
Civil Twilight 6:03 AM CST 5:00 PM CST
Nautical Twilight 5:32 AM CST 5:32 PM CST
Astronomical Twilight 5:02 AM CST 6:02 PM CST
Moon 2:44 AM CST (11/29) 2:10 PM CST (11/29)
Length of Visible Light 10h 57m
Length of Day
10h 02m
Waning Crescent, 14% of the Moon is Illuminated
Nov 29
Waning Crescent
Dec 2
New
Dec 9
First Quarter
Dec 17
Full
Dec 25
Last Quarter

Hourly Weather History & Observations

Time (CST) Temp. Windchill Dew Point Humidity Pressure Visibility Wind Dir Wind Speed Gust Speed Precip Events Conditions
12:15 AM 24.8 °F - 21.2 °F 86% 30.51 in 10.0 mi Calm Calm - N/A   Clear
12:35 AM 24.8 °F - 21.2 °F 86% 30.51 in 10.0 mi Calm Calm - N/A   Clear
12:55 AM 24.8 °F - 21.2 °F 86% 30.52 in 10.0 mi Calm Calm - N/A   Clear
1:15 AM 24.8 °F - 21.2 °F 86% 30.52 in 10.0 mi Calm Calm - N/A   Clear
1:35 AM 24.8 °F - 21.2 °F 86% 30.52 in 10.0 mi Calm Calm - N/A   Clear
1:55 AM 23.0 °F - 21.2 °F 93% 30.52 in 10.0 mi Calm Calm - N/A   Clear
2:15 AM 23.0 °F - 21.2 °F 93% 30.52 in 10.0 mi Calm Calm - N/A   Clear
2:35 AM 23.0 °F - 21.2 °F 93% 30.52 in 10.0 mi Calm Calm - N/A   Clear
2:55 AM 23.0 °F - 19.4 °F 86% 30.53 in 10.0 mi Calm Calm - N/A   Partly Cloudy
3:15 AM 23.0 °F - 21.2 °F 93% 30.52 in 10.0 mi Calm Calm - N/A   Partly Cloudy
3:35 AM 23.0 °F - 21.2 °F 93% 30.53 in 10.0 mi Calm Calm - N/A   Partly Cloudy
3:55 AM 23.0 °F - 19.4 °F 86% 30.53 in 10.0 mi Calm Calm - N/A   Partly Cloudy
4:15 AM 23.0 °F - 19.4 °F 86% 30.53 in 10.0 mi Calm Calm - N/A   Clear
4:35 AM 23.0 °F - 19.4 °F 86% 30.53 in 10.0 mi Calm Calm - N/A   Clear
4:55 AM 23.0 °F - 19.4 °F 86% 30.54 in 10.0 mi Calm Calm - N/A   Clear
5:15 AM 23.0 °F - 19.4 °F 86% 30.54 in 10.0 mi Calm Calm - N/A   Clear
5:35 AM 23.0 °F - 19.4 °F 86% 30.55 in 10.0 mi Calm Calm - N/A   Clear
5:55 AM 23.0 °F - 19.4 °F 86% 30.56 in 10.0 mi Calm Calm - N/A   Clear
6:15 AM 21.2 °F - 19.4 °F 93% 30.56 in 10.0 mi Calm Calm - N/A   Clear
6:35 AM 21.2 °F - 19.4 °F 93% 30.56 in 10.0 mi Calm Calm - N/A   Clear
6:55 AM 21.2 °F - 19.4 °F 93% 30.57 in 10.0 mi Calm Calm - N/A   Clear
7:15 AM 23.0 °F - 19.4 °F 86% 30.57 in 10.0 mi Calm Calm - N/A   Clear
7:35 AM 24.8 °F - 23.0 °F 93% 30.57 in 10.0 mi Calm Calm - N/A   Clear
7:55 AM 26.6 °F - 23.0 °F 86% 30.58 in 10.0 mi Calm Calm - N/A   Clear
8:15 AM 30.2 °F 26.7 °F 24.8 °F 80% 30.58 in 10.0 mi NE 3.5 mph - N/A   Clear
8:35 AM 32.0 °F 28.7 °F 24.8 °F 75% 30.58 in 10.0 mi NE 3.5 mph - N/A   Clear
8:55 AM 32.0 °F 26.4 °F 24.8 °F 75% 30.58 in 10.0 mi NE 5.8 mph - N/A   Clear
9:15 AM 35.6 °F 31.7 °F 26.6 °F 70% 30.58 in 10.0 mi NE 4.6 mph - N/A   Clear
9:35 AM 37.4 °F 32.8 °F 24.8 °F 60% 30.58 in 10.0 mi NE 5.8 mph - N/A   Clear
9:55 AM 41.0 °F 37.1 °F 23.0 °F 49% 30.58 in 10.0 mi NE 5.8 mph - N/A   Clear
10:15 AM 42.8 °F 38.6 °F 19.4 °F 39% 30.57 in 10.0 mi NE 6.9 mph - N/A   Clear
10:35 AM 44.6 °F 40.7 °F 19.4 °F 37% 30.56 in 10.0 mi ENE 6.9 mph - N/A   Clear
10:55 AM 44.6 °F 41.4 °F 19.4 °F 37% 30.55 in 10.0 mi ENE 5.8 mph - N/A   Clear
11:15 AM 46.4 °F - 21.2 °F 37% 30.54 in 10.0 mi Calm Calm - N/A   Clear
11:35 AM 46.4 °F - 21.2 °F 37% 30.53 in 10.0 mi Calm Calm - N/A   Clear
11:55 AM 48.2 °F - 21.2 °F 34% 30.52 in 10.0 mi NE 4.6 mph - N/A   Clear
12:15 PM 50.0 °F - 19.4 °F 30% 30.51 in 10.0 mi ENE 5.8 mph - N/A   Clear
12:35 PM 50.0 °F - 21.2 °F 32% 30.50 in 10.0 mi East 5.8 mph - N/A   Clear
12:55 PM 51.8 °F - 21.2 °F 30% 30.49 in 10.0 mi NE 4.6 mph - N/A   Clear
1:15 PM 51.8 °F - 19.4 °F 28% 30.48 in 10.0 mi ENE 4.6 mph - N/A   Clear
1:35 PM 53.6 °F - 21.2 °F 28% 30.48 in 10.0 mi Calm Calm - N/A   Clear
1:55 PM 53.6 °F - 21.2 °F 28% 30.47 in 10.0 mi NNE 5.8 mph - N/A   Clear
2:15 PM 53.6 °F - 21.2 °F 28% 30.47 in 10.0 mi Calm Calm - N/A   Clear
2:35 PM 53.6 °F - 23.0 °F 30% 30.47 in 10.0 mi NE 3.5 mph - N/A   Clear
2:55 PM 53.6 °F - 23.0 °F 30% 30.47 in 10.0 mi Calm Calm - N/A   Clear
3:15 PM 53.6 °F - 23.0 °F 30% 30.47 in 10.0 mi ESE 3.5 mph - N/A   Clear
3:35 PM 53.6 °F - 23.0 °F 30% 30.47 in 10.0 mi ENE 3.5 mph - N/A   Clear
3:55 PM 53.6 °F - 23.0 °F 30% 30.48 in 10.0 mi East 3.5 mph - N/A   Clear
4:15 PM 51.8 °F - 24.8 °F 35% 30.47 in 10.0 mi Calm Calm - N/A   Clear
4:35 PM 46.4 °F - 26.6 °F 46% 30.47 in 10.0 mi Calm Calm - N/A   Clear
4:55 PM 42.8 °F - 26.6 °F 53% 30.47 in 10.0 mi Calm Calm - N/A   Clear
5:15 PM 41.0 °F - 28.4 °F 61% 30.48 in 10.0 mi Calm Calm - N/A   Clear
5:35 PM 39.2 °F - 28.4 °F 65% 30.48 in 10.0 mi Calm Calm - N/A   Clear
5:55 PM 37.4 °F - 28.4 °F 70% 30.48 in 10.0 mi Calm Calm - N/A   Clear
6:15 PM 37.4 °F - 26.6 °F 65% 30.48 in 10.0 mi Calm Calm - N/A   Clear
6:35 PM 35.6 °F - 26.6 °F 70% 30.48 in 10.0 mi Calm Calm - N/A   Clear
6:55 PM 35.6 °F - 26.6 °F 70% 30.48 in 10.0 mi Calm Calm - N/A   Clear
7:15 PM 33.8 °F - 28.4 °F 81% 30.48 in 10.0 mi Calm Calm - N/A   Clear
7:35 PM 33.8 °F - 26.6 °F 75% 30.49 in 10.0 mi Calm Calm - N/A   Clear
7:55 PM 32.0 °F - 26.6 °F 80% 30.49 in 10.0 mi Calm Calm - N/A   Clear
8:15 PM 32.0 °F - 26.6 °F 80% 30.49 in 10.0 mi Calm Calm - N/A   Clear
8:35 PM 32.0 °F - 26.6 °F 80% 30.49 in 10.0 mi Calm Calm - N/A   Clear
8:55 PM 32.0 °F - 26.6 °F 80% 30.49 in 10.0 mi Calm Calm - N/A   Clear
9:15 PM 32.0 °F - 26.6 °F 80% 30.48 in 10.0 mi Calm Calm - N/A   Clear
9:35 PM 32.0 °F - 26.6 °F 80% 30.49 in 10.0 mi Calm Calm - N/A   Clear
9:55 PM 30.2 °F - 26.6 °F 86% 30.49 in 10.0 mi Calm Calm - N/A   Clear
10:15 PM 30.2 °F - 26.6 °F 86% 30.49 in 10.0 mi Calm Calm - N/A   Clear
10:35 PM 30.2 °F - 26.6 °F 86% 30.49 in 10.0 mi Calm Calm - N/A   Clear
10:55 PM 30.2 °F - 26.6 °F 86% 30.48 in 10.0 mi Calm Calm - N/A   Clear
11:15 PM 28.4 °F - 26.6 °F 93% 30.48 in 10.0 mi Calm Calm - N/A   Clear
11:35 PM 28.4 °F - 26.6 °F 93% 30.48 in 10.0 mi Calm Calm - N/A   Clear
11:55 PM 28.4 °F - 26.6 °F 93% 30.49 in 10.0 mi Calm Calm - N/A   Clear